Fairbanks, AK

11:29 AM AKDT on September 25, 2016 (GMT -0800)
Fairbanks International

Weather History for PAFA - February, 2012

Change the Weather History Date:

Sunday, February 5, 2012

  Actual Average Record
Temperature  
Mean Temperature 9 °F -5 °F  
Max Temperature 31 °F 5 °F 39 °F (1954)
Min Temperature -14 °F -15 °F -56 °F (1968)
Degree Days  
Heating Degree Days 56 70  
Month to date heating degree days 361 353  
Since 1 July heating degree days 9201 8885  
Cooling Degree Days 0 0  
Month to date cooling degree days 0 0  
Year to date cooling degree days 0 0  
Moisture  
Dew Point 2 °F    
Average Humidity 79    
Maximum Humidity 96    
Minimum Humidity 49    
Precipitation  
Precipitation 0.00 in 0.01 in 0.31 in (1931)
Month to date precipitation 0.08 0.08  
Year to date precipitation 0.77 0.66  
Snow  
Snow 0.00 in 0.30 in 2.40 in (1931)
Month to date snowfall 1.8 1.5  
Since 1 July snowfall 37.0 49.7  
Snow Depth 20.00 in    
Sea Level Pressure  
Sea Level Pressure 29.94 in    
Wind  
Wind Speed 2 mph (NNE)    
Max Wind Speed 7 mph    
Max Gust Speed -    
Visibility 10 miles    
Events      
T = Trace of Precipitation, MM = Missing Value Source: NWS Daily Summary

Daily Weather History Graph

Daily Weather History Graph

Search for Another Location

Airport or City:

Trip Planner

Search our weather history database for the weather conditions in past years. The results will help you decide how hot, cold, wet, or windy it might be!

Date:

Astronomy

Feb. 05, 2012 Rise Set
Actual Time 9:24 AM AKST 4:47 PM AKST
Civil Twilight 8:27 AM AKST 5:44 PM AKST
Nautical Twilight 7:28 AM AKST 6:43 PM AKST
Astronomical Twilight 6:31 AM AKST 7:40 PM AKST
Moon 2:24 PM AKST (2/5) 8:19 AM AKST (2/5)
Length of Visible Light 9h 16m
Length of Day
7h 22m
Waxing Gibbous, 95% of the Moon is Illuminated
Feb 5
Waxing Gibbous
Feb 7
Full
Feb 14
Last Quarter
Feb 21
New
Feb 29
First Quarter

Hourly Weather History & Observations

Time (AKST) Temp. Windchill Dew Point Humidity Pressure Visibility Wind Dir Wind Speed Gust Speed Precip Events Conditions
12:53 AM -13.0 °F - -16.1 °F 86% 30.09 in 10.0 mi Calm Calm - N/A   Partly Cloudy
1:53 AM -9.9 °F - -14.1 °F 82% 30.07 in 10.0 mi Calm Calm - N/A   Partly Cloudy
2:53 AM -4.0 °F - -8.0 °F 83% 30.06 in 10.0 mi Calm Calm - N/A   Mostly Cloudy
3:53 AM -6.0 °F - -9.9 °F 83% 30.04 in 10.0 mi Calm Calm - N/A   Mostly Cloudy
4:53 AM -2.9 °F -13.3 °F -8.0 °F 79% 30.02 in 10.0 mi NE 4.6 mph - N/A   Mostly Cloudy
5:53 AM -0.0 °F -7.9 °F -4.0 °F 83% 30.01 in 10.0 mi NNE 3.5 mph - N/A   Overcast
6:53 AM 3.9 °F - -0.0 °F 84% 29.99 in 10.0 mi Calm Calm - N/A   Mostly Cloudy
7:53 AM 3.9 °F -3.4 °F -0.0 °F 84% 29.97 in 10.0 mi NNW 3.5 mph - N/A   Mostly Cloudy
8:53 AM 5.0 °F - 1.9 °F 87% 29.95 in 10.0 mi Calm Calm - N/A   Mostly Cloudy
9:53 AM 5.0 °F - 1.0 °F 84% 29.95 in 10.0 mi Calm Calm - N/A   Overcast
10:53 AM 6.1 °F -2.8 °F 1.9 °F 83% 29.94 in 10.0 mi NE 4.6 mph - N/A   Mostly Cloudy
11:53 AM 9.0 °F - 5.0 °F 84% 29.92 in 10.0 mi Calm Calm - N/A   Overcast
12:53 PM 8.1 °F -2.0 °F 3.0 °F 80% 29.90 in 10.0 mi NNE 5.8 mph - N/A   Mostly Cloudy
1:53 PM 10.9 °F 4.7 °F 6.1 °F 81% 29.89 in 10.0 mi NNE 3.5 mph - N/A   Overcast
2:53 PM 14.0 °F 6.5 °F 8.1 °F 77% 29.88 in 10.0 mi WNW 4.6 mph - N/A   Overcast
3:53 PM 16.0 °F 6.3 °F 10.0 °F 77% 29.87 in 10.0 mi North 6.9 mph - N/A   Overcast
4:53 PM 25.0 °F 20.7 °F 10.0 °F 53% 29.86 in 10.0 mi ENE 3.5 mph - N/A   Mostly Cloudy
5:53 PM 28.0 °F - 10.9 °F 49% 29.86 in 10.0 mi Calm Calm - N/A   Mostly Cloudy
6:53 PM 26.1 °F 20.5 °F 12.9 °F 58% 29.88 in 10.0 mi South 4.6 mph - N/A   Mostly Cloudy
7:53 PM 19.9 °F 14.9 °F 12.0 °F 71% 29.89 in 10.0 mi SSW 3.5 mph - N/A   Mostly Cloudy
8:53 PM 6.1 °F - 3.9 °F 91% 29.90 in 10.0 mi Calm Calm - N/A   Scattered Clouds
9:53 PM 1.9 °F -5.6 °F 1.0 °F 96% 29.92 in 10.0 mi NNW 3.5 mph - N/A   Scattered Clouds
10:53 PM 5.0 °F - 1.9 °F 87% 29.94 in 10.0 mi Calm Calm - N/A   Partly Cloudy
11:53 PM 9.0 °F - 5.0 °F 84% 29.96 in 10.0 mi Calm Calm - N/A   Partly Cloudy